[[{"header":{"parameterUnit":"m.s-1","parameterCategory":1,"la1":30.2991,"la2":30.254,"lo1":-89.0895,"lo2":-89.0444,"dy":0.0017,"dx":0.0017,"nx":28,"ny":28,"refTime":"2024-05-10T03:00:00:Z","depth":0,"parameterNumber":2,"parameterNumberName":"U-component_of_WINDS"},"data":[0,0,0,0,0,0,0,0,0,0,0,0,0,0,0,0,0,0,0,0,0,0,0,0,0,0,0,0,0,0,0,0,0,0,0,0,0,0,0,0,0,0,0,0,0,0,0,0,0,0,0,0,0,0,0,0,0,0,0.1946,0.1947,0,0.2004,0.2004,0.2005,0.2033,0.2033,0.2033,0.2033,0.2091,0.2092,0.2094,0,0,0,0,0,0,0,0,0,0,0,0,0,0.1861,0.1862,0.1946,0.1947,0.1948,0.2004,0.2004,0.2005,0.2033,0.2033,0.2033,0.2033,0.209,0.2092,0.2094,0,0,0,0,0,0,0,0,0,0,0,0,0,0.1906,0.1863,0.1946,0.1969,0.1971,0.2003,0.2004,0.2005,0.2033,0.2033,0.2033,0.2033,0.209,0.2092,0.2094,0.2108,0,0,0.2101,0.2102,0,0,0,0,0,0,0,0,0.1903,0.1909,0.1965,0.1967,0.197,0.2011,0.1995,0.204,0.2033,0.201,0.2033,0.2033,0.2064,0.2069,0.2079,0.2111,0.2114,0.2102,0.2103,0.2104,0.2105,0,0,0,0,0,0,0,0.19,0.1907,0.1969,0.1965,0.1969,0.1976,0.1982,0.2004,0.2036,0.2012,0.2014,0.202,0.2066,0.2077,0.2081,0.2114,0.2101,0.2104,0.2105,0.2106,0.2161,0.2161,0,0,0,0,0,0,0.1893,0.1904,0.1967,0.1971,0.1936,0.1977,0.1984,0.1998,0.2036,0.2042,0.202,0.2021,0.2073,0.2078,0.2083,0.2102,0.2104,0.2106,0.2107,0.2161,0.2161,0.2161,0,0,0,0,0,0,0.1892,0.1899,0.1965,0.1938,0.1947,0.1979,0.1994,0.1999,0.2011,0.2043,0.2048,0.2026,0.2073,0.208,0.2102,0.2105,0.2107,0.2109,0.2161,0.2161,0.2161,0.2141,0,0,0,0,0,0,0.1889,0.1898,0.1904,0.1938,0.1948,0.1983,0.1994,0.2,0.2015,0.2017,0.2049,0.2055,0.2074,0.2098,0.2104,0.2108,0.2111,0.2161,0.2161,0.2161,0.2141,0.214,0.2139,0,0,0,0,0,0.1886,0.1895,0.1904,0.1911,0.1956,0.1983,0.1989,0.2011,0.2015,0.2021,0.2041,0.2054,0.2103,0.21,0.2107,0.2112,0.216,0.2161,0.2161,0.2142,0.214,0.2139,0,0,0,0,0,0,0.186,0.19,0.191,0.1931,0.1954,0.1988,0.1996,0.2009,0.203,0.2031,0.2057,0.2064,0.2084,0.21,0.2096,0.2127,0.2133,0.2135,0.2116,0.2115,0.2114,0.211,0.2113,0,0,0,0,0,0.1857,0.1876,0.191,0.1925,0.1936,0.1964,0.1976,0.1992,0.2016,0.2025,0.2047,0.207,0.2091,0.2104,0.2125,0.2144,0.2151,0.215,0.2149,0.2148,0.2149,0.2161,0.216,0.2162,0.2162,0.2162,0,0,0.1851,0.1875,0.1885,0.1921,0.194,0.1958,0.1972,0.1991,0.2005,0.2028,0.205,0.2067,0.2094,0.2115,0.2125,0.2129,0.215,0.2148,0.2147,0.2149,0.2161,0.2161,0.216,0.2162,0.2162,0.2162,0,0,0.1849,0.1869,0.1884,0.1903,0.1932,0.1951,0.1954,0.1987,0.1999,0.2022,0.204,0.2057,0.2092,0.2111,0.2125,0.2131,0.2143,0.2137,0.2131,0.2142,0.2142,0.2142,0.2144,0.2145,0.2138,0.2138,0.2138,0,0.1837,0.1866,0.189,0.1909,0.1924,0.1946,0.1961,0.1979,0.2013,0.2022,0.2026,0.2071,0.2091,0.2116,0.2118,0.2128,0.2133,0.2133,0.214,0.214,0.2141,0.2143,0.2144,0.2137,0.2137,0.2137,0.2137,0,0.185,0.187,0.1879,0.1912,0.1928,0.1945,0.1971,0.1985,0.1998,0.2017,0.204,0.2064,0.2091,0.2098,0.2111,0.2126,0.2127,0.2135,0.2141,0.2139,0.2142,0.2143,0.2135,0.2136,0.2136,0.2136,0,0,0.1833,0.188,0.1883,0.1898,0.1932,0.1948,0.1966,0.1992,0.2003,0.2026,0.2041,0.2071,0.2079,0.2095,0.2111,0.212,0.2123,0.2127,0.2128,0.2126,0.2141,0.2134,0.2135,0.2132,0.2132,0.2132,0.2138,0,0.1836,0.187,0.1892,0.1916,0.1935,0.1957,0.1972,0.1995,0.2012,0.2031,0.205,0.2071,0.208,0.2089,0.21,0.2121,0.2127,0.2121,0.2147,0.2147,0.2139,0.2136,0.213,0.2134,0.214,0.214,0.214,0,0.1844,0.1867,0.1893,0.1925,0.1934,0.1948,0.1974,0.1991,0.2017,0.2029,0.2047,0.2064,0.2083,0.2088,0.2116,0.2111,0.2123,0.2135,0.2136,0.2139,0.2143,0.214,0.2136,0.2137,0.2142,0.2142,0.2142,0,0.1829,0.1866,0.1887,0.1899,0.1938,0.1947,0.1963,0.1989,0.2003,0.2026,0.2036,0.206,0.2074,0.2093,0.2115,0.2116,0.2141,0.2147,0.2151,0.2151,0.2155,0.2155,0.2154,0.2163,0.2163,0.2163,0.2163,0,0.1829,0.1845,0.1881,0.1894,0.1912,0.1937,0.1954,0.1972,0.1995,0.2012,0.2032,0.2047,0.2076,0.2094,0.2112,0.2133,0.2138,0.2149,0.2153,0.2147,0.2146,0.2155,0.2155,0.2163,0.2163,0.2163,0.2163,0,0.1816,0.184,0.1865,0.1899,0.1908,0.192,0.1949,0.1962,0.1981,0.2002,0.2008,0.2038,0.2061,0.2086,0.2117,0.2129,0.2148,0.2155,0.214,0.2142,0.2145,0.2145,0.215,0.2153,0.216,0.216,0.216,0,0.1814,0.1827,0.1863,0.1876,0.1892,0.1912,0.1927,0.1953,0.1967,0.1998,0.2008,0.2032,0.2054,0.2089,0.2114,0.2138,0.2145,0.2145,0.2149,0.2142,0.2145,0.2144,0.2146,0.2144,0.2144,0.2144,0.2144,0,0.1809,0.1821,0.1842,0.1868,0.1886,0.1907,0.1929,0.1939,0.1969,0.1984,0.2008,0.2025,0.2057,0.2081,0.2109,0.2125,0.2139,0.2143,0.2145,0.2138,0.2129,0.2134,0.2137,0.2142,0.2142,0.2142,0.2143,0.2143,0.1802,0.1814,0.1842,0.1865,0.1884,0.1905,0.1919,0.194,0.1961,0.1989,0.2003,0.2027,0.2053,0.2091,0.2108,0.2127,0.2131,0.2134,0.2135,0.2136,0.2134,0.2126,0.2132,0.2132,0.2132,0.2132,0.2132,0,0.1798,0.1817,0.1838,0.1869,0.1887,0.1899,0.1925,0.1939,0.196,0.1983,0.2004,0.2032,0.2056,0.2082,0.2108,0.2118,0.2125,0.2124,0.2123,0.2127,0.2129,0.2124,0.2118,0.2118,0.2118,0.2118,0.2118,0.2118,0.1798,0.182,0.1835,0.1866,0.1885,0.1909,0.1923,0.1942,0.1961,0.1991,0.2011,0.2028,0.2053,0.2081,0.2103,0.211,0.2119,0.2115,0.2124,0.2126,0.2127,0.2128,0.2124,0.2117,0.2117,0.2121,0.2121,0.2121]},{"header":{"parameterUnit":"m.s-1","parameterCategory":1,"la1":30.2991,"la2":30.254,"lo1":-89.0895,"lo2":-89.0444,"dy":0.0017,"dx":0.0017,"nx":28,"ny":28,"refTime":"2024-05-10T03:00:00:Z","depth":0,"parameterNumber":3,"parameterNumberName":"V-component_of_WINDS"},"data":[0,0,0,0,0,0,0,0,0,0,0,0,0,0,0,0,0,0,0,0,0,0,0,0,0,0,0,0,0,0,0,0,0,0,0,0,0,0,0,0,0,0,0,0,0,0,0,0,0,0,0,0,0,0,0,0,0,0,-0.5886,-0.5887,0,-0.5997,-0.5998,-0.6,-0.6068,-0.6069,-0.6069,-0.6069,-0.6183,-0.6186,-0.6188,0,0,0,0,0,0,0,0,0,0,0,0,0,-0.5733,-0.5735,-0.5886,-0.5887,-0.5889,-0.5997,-0.5999,-0.6,-0.6068,-0.6069,-0.6069,-0.607,-0.6182,-0.6185,-0.6189,0,0,0,0,0,0,0,0,0,0,0,0,0,-0.5817,-0.5736,-0.5886,-0.5936,-0.5941,-0.5997,-0.5999,-0.6,-0.6068,-0.6069,-0.6069,-0.607,-0.6181,-0.6185,-0.6189,-0.6203,0,0,-0.6201,-0.6203,0,0,0,0,0,0,0,0,-0.5812,-0.5823,-0.5927,-0.5933,-0.5939,-0.6019,-0.5986,-0.6068,-0.6068,-0.602,-0.6069,-0.607,-0.6128,-0.6137,-0.6156,-0.6208,-0.6213,-0.6202,-0.6204,-0.6206,-0.6207,0,0,0,0,0,0,0,-0.5806,-0.5818,-0.593,-0.5929,-0.5936,-0.5953,-0.5965,-0.6002,-0.607,-0.6024,-0.603,-0.6042,-0.6132,-0.6152,-0.6159,-0.6215,-0.6202,-0.6205,-0.6208,-0.6209,-0.6285,-0.6285,0,0,0,0,0,0,-0.5792,-0.5813,-0.5926,-0.5933,-0.5876,-0.5955,-0.5969,-0.5993,-0.607,-0.6082,-0.6041,-0.6045,-0.6145,-0.6155,-0.6164,-0.6186,-0.6206,-0.621,-0.6212,-0.6285,-0.6285,-0.6284,0,0,0,0,0,0,-0.5789,-0.5802,-0.5922,-0.5875,-0.5891,-0.5957,-0.5983,-0.5995,-0.6016,-0.6082,-0.6095,-0.605,-0.6146,-0.6158,-0.6193,-0.6191,-0.6211,-0.6215,-0.6286,-0.6285,-0.6285,-0.6229,0,0,0,0,0,0,-0.5784,-0.58,-0.5806,-0.5874,-0.5893,-0.5949,-0.5983,-0.5997,-0.6023,-0.6028,-0.6094,-0.6105,-0.6147,-0.6187,-0.6197,-0.6197,-0.6218,-0.6286,-0.6286,-0.6285,-0.6232,-0.6227,-0.6223,0,0,0,0,0,-0.5778,-0.5786,-0.5806,-0.582,-0.5902,-0.5949,-0.596,-0.6008,-0.6022,-0.6029,-0.6071,-0.6103,-0.6189,-0.619,-0.6202,-0.6203,-0.6287,-0.6286,-0.6285,-0.6234,-0.6228,-0.6223,0,0,0,0,0,0,-0.5716,-0.5796,-0.5819,-0.5849,-0.5892,-0.596,-0.597,-0.6,-0.604,-0.6043,-0.6102,-0.6116,-0.6145,-0.6177,-0.6176,-0.6221,-0.6242,-0.6243,-0.6198,-0.6193,-0.6189,-0.6181,-0.6222,0,0,0,0,0,-0.5706,-0.5737,-0.5805,-0.5825,-0.5845,-0.5904,-0.5926,-0.5959,-0.6006,-0.6024,-0.607,-0.6113,-0.6151,-0.6174,-0.6211,-0.6237,-0.6252,-0.6243,-0.6239,-0.6235,-0.6236,-0.6252,-0.6249,-0.6281,-0.6281,-0.6281,0,0,-0.5685,-0.5732,-0.5748,-0.5813,-0.5851,-0.5882,-0.5918,-0.595,-0.5973,-0.6029,-0.6065,-0.6099,-0.6153,-0.6183,-0.6198,-0.621,-0.623,-0.6234,-0.623,-0.6233,-0.625,-0.6247,-0.6245,-0.6281,-0.6281,-0.6281,0,0,-0.5663,-0.5702,-0.5723,-0.5759,-0.5815,-0.5854,-0.5858,-0.5923,-0.5948,-0.5985,-0.6027,-0.6056,-0.6119,-0.6155,-0.6181,-0.6173,-0.6204,-0.6183,-0.6161,-0.6176,-0.6173,-0.6171,-0.6169,-0.6167,-0.6184,-0.6184,-0.6184,0,-0.563,-0.5678,-0.573,-0.5759,-0.5786,-0.5838,-0.586,-0.5892,-0.5957,-0.5975,-0.5988,-0.6067,-0.6107,-0.6146,-0.6144,-0.6164,-0.6171,-0.6177,-0.6169,-0.6168,-0.6167,-0.6165,-0.6164,-0.6181,-0.6181,-0.6182,-0.6182,0,-0.5635,-0.5668,-0.5679,-0.574,-0.5769,-0.5794,-0.5849,-0.5871,-0.5902,-0.594,-0.5977,-0.6026,-0.6075,-0.6086,-0.6117,-0.613,-0.6136,-0.6158,-0.6181,-0.616,-0.6159,-0.6159,-0.6177,-0.6178,-0.6179,-0.618,0,0,-0.5577,-0.5667,-0.567,-0.5699,-0.5764,-0.579,-0.5818,-0.5865,-0.5884,-0.5927,-0.5952,-0.6003,-0.6024,-0.6054,-0.6089,-0.6102,-0.6093,-0.6123,-0.6125,-0.6116,-0.6112,-0.6095,-0.6093,-0.6113,-0.6114,-0.6114,-0.6107,0,-0.5565,-0.5618,-0.5664,-0.5699,-0.5731,-0.578,-0.5804,-0.5847,-0.5882,-0.5914,-0.5954,-0.599,-0.6014,-0.6033,-0.6048,-0.6091,-0.6093,-0.6092,-0.6138,-0.6138,-0.6123,-0.6093,-0.6075,-0.6067,-0.6107,-0.6107,-0.6107,0,-0.5559,-0.56,-0.5638,-0.57,-0.5715,-0.5735,-0.5783,-0.5813,-0.5862,-0.5887,-0.592,-0.5957,-0.5989,-0.6007,-0.6052,-0.605,-0.6071,-0.6095,-0.6096,-0.6103,-0.6122,-0.6099,-0.6066,-0.6064,-0.6107,-0.6107,-0.6107,0,-0.5513,-0.5578,-0.5609,-0.5632,-0.5705,-0.5719,-0.575,-0.58,-0.5825,-0.5867,-0.5884,-0.5929,-0.5953,-0.5987,-0.6035,-0.6044,-0.6074,-0.6097,-0.6097,-0.6095,-0.6101,-0.61,-0.6071,-0.6114,-0.6114,-0.6114,-0.6114,0,-0.5495,-0.5517,-0.559,-0.5609,-0.5635,-0.5688,-0.5712,-0.5748,-0.5791,-0.5819,-0.5864,-0.5888,-0.595,-0.5982,-0.6019,-0.6051,-0.6061,-0.6083,-0.6093,-0.6079,-0.6076,-0.6094,-0.6096,-0.6114,-0.6114,-0.6114,-0.6114,0,-0.5449,-0.5499,-0.5537,-0.5603,-0.562,-0.5636,-0.5693,-0.5713,-0.5751,-0.5785,-0.5796,-0.5856,-0.5896,-0.5947,-0.6003,-0.6028,-0.6056,-0.6071,-0.6039,-0.6045,-0.6042,-0.6042,-0.6024,-0.6024,-0.6066,-0.6065,-0.6065,0,-0.5435,-0.5453,-0.5521,-0.5542,-0.5572,-0.5606,-0.5632,-0.5685,-0.5711,-0.5769,-0.5782,-0.5826,-0.5863,-0.5925,-0.5974,-0.6017,-0.6033,-0.6024,-0.604,-0.6026,-0.6034,-0.6033,-0.6035,-0.602,-0.6019,-0.6019,-0.6018,0,-0.5404,-0.5428,-0.5464,-0.5509,-0.554,-0.5578,-0.5618,-0.5633,-0.5694,-0.5721,-0.5762,-0.5791,-0.5849,-0.5891,-0.5941,-0.5973,-0.6006,-0.6013,-0.6015,-0.6002,-0.5983,-0.5994,-0.6029,-0.6013,-0.6014,-0.6014,-0.6014,-0.6015,-0.5374,-0.5392,-0.5443,-0.5482,-0.5518,-0.5554,-0.5577,-0.5618,-0.5653,-0.5704,-0.5733,-0.5774,-0.5823,-0.5893,-0.5924,-0.5956,-0.5969,-0.5972,-0.5973,-0.5973,-0.5969,-0.5977,-0.5966,-0.5966,-0.5966,-0.5966,-0.5966,0,-0.5346,-0.5381,-0.5417,-0.5472,-0.5502,-0.553,-0.5576,-0.56,-0.5635,-0.5678,-0.5714,-0.5761,-0.5803,-0.5855,-0.59,-0.5916,-0.5932,-0.5926,-0.5926,-0.5933,-0.5955,-0.5949,-0.5912,-0.5912,-0.5912,-0.5912,-0.5912,-0.5912,-0.5336,-0.5368,-0.5398,-0.5448,-0.5483,-0.5523,-0.5547,-0.5581,-0.5615,-0.5666,-0.5701,-0.5734,-0.5781,-0.583,-0.587,-0.5884,-0.5899,-0.5888,-0.5907,-0.5927,-0.5931,-0.5936,-0.593,-0.5891,-0.5891,-0.5882,-0.5882,-0.5882]}]]